EW8130 Weather Reports


time (UTC)temp
C
wind
direction
speed
KPH
gust
KPH
rain 1hr
cm
rain 24hr
cm
rain mn
cm
humidity
%
barometer
mb
20260509171537 27 215 0.0 8.0 0.00 0.00 0.00 66 989.4
20260509170034 27 247 0.0 1.6 0.00 0.00 0.00 67 989.5
20260509164532 27 294 0.0 0.0 0.00 0.00 0.00 68 989.6
20260509163038 27 236 0.0 1.6 0.00 0.00 0.00 68 989.6
20260509161529 27 247 0.0 1.6 0.00 0.00 0.00 70 989.4
20260509160027 26 261 0.0 3.2 0.00 0.00 0.00 73 989.5
20260509154526 26 249 0.0 3.2 0.00 0.00 0.00 70 989.3
20260509153031 26 275 0.0 3.2 0.00 0.00 0.00 72 989.2
20260509151522 25 243 3.2 14.5 0.00 0.00 0.00 74 989.2
20260509150019 25 210 1.6 12.9 0.00 0.00 0.00 75 989.2
20260509144519 24 228 0.0 4.8 0.00 0.00 0.00 77 989.3
20260509143013 24 255 0.0 3.2 0.00 0.00 0.00 80 989.3
20260509141511 23 305 0.0 1.6 0.00 0.00 0.00 81 989.3
20260509140012 23 220 0.0 3.2 0.00 0.00 0.00 82 989.3
20260509134506 23 217 0.0 3.2 0.00 0.00 0.00 82 989.2
20260509133004 22 237 0.0 3.2 0.00 0.00 0.00 83 989.1
20260509131601 22 251 0.0 1.6 0.00 0.00 0.00 86 989.0
20260509130108 21 217 0.0 1.6 0.00 0.00 0.00 91 988.8
20260509124559 21 211 0.0 3.2 0.00 0.00 0.00 93 988.9
20260509123058 20 359 0.0 1.6 0.00 0.00 0.00 93 989.0
20260509121625 20 285 0.0 1.6 0.00 0.00 0.00 92 988.9
20260509120057 21 102 0.0 3.2 0.00 0.00 0.00 93 988.6
20260509114603 21 103 0.0 1.6 0.00 0.00 0.00 92 988.5
20260509113100 21 91 0.0 4.8 0.00 0.00 0.00 92 988.4
20260509111556 21 256 0.0 1.6 0.00 0.00 0.00 93 988.3
20260509110104 21 144 0.0 1.6 0.00 0.00 0.00 93 988.2
20260509104554 20 122 0.0 0.0 0.00 0.00 0.00 93 988.1
20260509103101 20 208 0.0 1.6 0.00 0.00 0.00 93 988.1
20260509101604 20 196 0.0 6.4 0.00 0.00 0.00 93 987.7
20260509100054 20 206 0.0 1.6 0.00 0.00 0.00 93 987.2
20260509094603 20 237 0.0 3.2 0.00 0.00 0.00 93 987.1
20260509093052 20 58 1.6 14.5 0.00 0.00 0.00 93 986.0
20260509091551 20 56 6.4 20.9 0.00 0.00 0.00 92 985.9
20260509090058 20 66 12.9 22.5 0.00 0.00 0.00 92 985.9
20260509084547 20 62 3.2 16.1 0.00 0.00 0.00 91 986.7
20260509083052 21 93 0.0 9.7 0.00 0.00 0.00 90 987.8
20260509081538 21 110 0.0 3.2 0.00 0.00 0.00 90 988.5
20260509080039 21 125 0.0 3.2 0.00 0.00 0.00 90 988.9
20260509074538 21 163 0.0 1.6 0.00 0.00 0.00 90 989.2
20260509073037 20 166 0.0 1.6 0.00 0.00 0.00 90 989.5
20260509071541 20 164 0.0 1.6 0.00 0.00 0.00 89 989.7
20260509070033 21 183 0.0 4.8 0.00 0.00 0.00 88 988.9
20260509064531 21 137 0.0 0.0 0.00 0.00 0.00 88 988.9
20260509063029 21 118 0.0 1.6 0.00 0.00 0.00 87 988.9
20260509061528 21 113 0.0 1.6 0.00 0.00 0.00 86 989.4
20260509060029 21 96 0.0 1.6 0.00 0.00 0.00 86 989.5
20260509054527 21 15 0.0 0.0 0.00 0.00 0.00 85 990.1
20260509053031 21 189 0.0 1.6 0.00 0.00 0.00 85 989.5
20260509051522 21 123 0.0 1.6 0.00 0.00 0.00 85 989.1
20260509050021 22 142 0.0 1.6 0.00 0.00 0.00 84 989.2
20260509044519 22 99 0.0 6.4 0.00 0.00 0.00 83 988.7
20260509043017 22 129 0.0 1.6 0.00 0.00 0.00 82 989.2
20260509041517 22 232 0.0 0.0 0.00 0.00 0.00 82 989.8
20260509040026 22 359 0.0 1.6 0.00 0.00 0.00 82 989.6
20260509034517 22 70 0.0 6.4 0.00 0.00 0.00 82 989.1
20260509033015 22 95 0.0 3.2 0.00 0.00 0.00 82 989.0
20260509031514 22 126 0.0 1.6 0.00 0.00 0.00 82 988.9
20260509030028 22 113 0.0 3.2 0.00 0.00 0.00 81 988.7
20260509024514 22 50 0.0 1.6 0.00 0.00 0.00 80 988.4
20260509023012 22 87 0.0 3.2 0.00 0.00 0.00 79 988.1
20260509021513 22 37 0.0 1.6 0.00 0.00 0.00 79 988.0
20260509020012 22 57 0.0 1.6 0.00 0.00 0.00 79 988.1
20260509014510 22 110 0.0 1.6 0.00 0.00 0.00 79 988.1
20260509013011 22 73 0.0 3.2 0.00 0.00 0.00 79 988.0
20260509011511 22 93 0.0 1.6 0.00 0.00 0.00 79 987.8
20260509010010 22 53 0.0 1.6 0.00 0.00 0.00 78 987.3
20260509004512 22 359 0.0 3.2 0.00 0.00 0.00 77 987.1
20260509003012 22 359 0.0 1.6 0.00 0.00 0.00 77 987.3
20260509001512 22 359 0.0 3.2 0.00 0.00 0.00 76 987.4
20260509000008 22 359 0.0 3.2 0.00 0.00 0.00 76 987.5
20260508234512 22 50 0.0 3.2 0.00 0.00 0.00 75 987.7
20260508233008 23 66 0.0 3.2 0.00 0.00 0.00 73 987.8
20260508231507 23 31 0.0 1.6 0.00 0.00 0.00 71 987.7
20260508230006 23 10 0.0 1.6 0.00 0.00 0.00 72 987.8
20260508224505 22 134 0.0 1.6 0.00 0.00 0.00 72 987.9
20260508223005 22 85 0.0 1.6 0.00 0.00 0.00 73 988.0
20260508221504 22 121 0.0 1.6 0.00 0.00 0.00 72 988.0
20260508220004 22 137 0.0 1.6 0.00 0.00 0.00 74 987.9
20260508214503 22 359 0.0 3.2 0.00 0.00 0.00 73 987.8
20260508213008 21 91 0.0 3.2 0.00 0.00 0.00 75 987.9
20260508211503 21 294 0.0 24.1 0.00 0.00 0.00 78 986.9
20260508210100 22 139 0.0 11.3 0.00 0.00 0.00 75 989.8
20260508204557 22 152 0.0 1.6 0.00 0.00 0.00 73 989.6
20260508203107 23 149 0.0 1.6 0.00 0.00 0.00 72 989.7
20260508201604 23 114 0.0 1.6 0.00 0.00 0.00 70 989.6
20260508200056 23 145 0.0 3.2 0.00 0.00 0.00 68 989.6
20260508194556 24 135 0.0 3.2 0.00 0.00 0.00 67 989.6
20260508193055 23 52 0.0 1.6 0.00 0.00 0.00 66 989.8
20260508191552 23 56 0.0 9.7 0.00 0.00 0.00 69 990.1
20260508190050 23 76 0.0 4.8 0.00 0.00 0.00 67 990.2
20260508184549 24 82 0.0 8.0 0.00 0.00 0.00 66 990.3
20260508183048 25 122 0.0 9.7 0.00 0.00 0.00 64 990.4
20260508181547 25 108 0.0 9.7 0.00 0.00 0.00 65 990.5
20260508180042 24 124 0.0 1.6 0.00 0.00 0.00 65 990.8
20260508174537 23 31 0.0 3.2 0.00 0.00 0.00 66 991.1
20260508173035 23 78 0.0 3.2 0.00 0.00 0.00 65 991.3